Regional Weather Roundup
Issued by NWS Northern Indiana

Home | Current Version | Previous Version | Text Only | Print | Product List | Glossary Off
Versions: 1 2 3 4 5 6 7 8 9 10 11 12 13 14 15 16 17 18 19 20 21 22 23 24 25 26 27 28 29 30 31 32 33 34 35 36 37 38 39 40 41 42 43 44 45 46 47 48 49 50

000
ASUS43 KIWX 240810
RWRIWX

KIWX WEATHER ROUNDUP
NATIONAL WEATHER SERVICE NORTHERN INDIANA
400 AM EDT THU JUL 24 2014

NOTE: "FAIR" INDICATES FEW OR NO CLOUDS BELOW 12,000 FEET WITH NO
SIGNIFICANT WEATHER AND/OR OBSTRUCTIONS TO VISIBILITY.

* THESE STATIONS ARE NOT UNDER NWS QUALITY CONTROL. THEY ALSO MAY NOT
  REPORT WEATHER SUCH AS PRECIPITATION OR FOG.

INZ001>027-240900-
NORTHERN INDIANA

CITY           SKY/WX    TMP DP  RH WIND       PRES   REMARKS
GARY*          CLEAR     65  56  71 NE12      30.12S
VALPARAISO     CLEAR     57  53  86 NE5       30.11S
MICHIGAN CITY* CLEAR     54  54 100 CALM      30.12S
LAPORTE*       CLEAR     57  53  86 N8        30.11F
KNOX*            N/A     52  50  93 N3        30.09F VSB 1/4
SOUTH BEND     CLEAR     57  52  83 N8        30.11S
GOSHEN         MOCLDY    59  55  87 N6        30.09S
MONTICELLO*    MOCLDY    57  56  95 NE5       30.07F
LOGANSPORT*    CLEAR     55  52  88 N6        30.08S
ROCHESTER*     CLEAR     59  55  88 N3        30.09S
WARSAW*        PTCLDY    59  55  88 N3        30.09S
ANGOLA*        CLOUDY    61  55  82 CALM      30.09S
FORT WAYNE     MOCLDY    64  60  87 NE5       30.07F
HUNTINGTON*    CLOUDY    60  58  95 CALM      30.07S
PERU/GRISSOM   CLEAR     58  58 100 N6        30.07S
MARION*        PTCLDY    57  56  96 N3        30.07S

$$
INZ028>050-240900-
CENTRAL INDIANA

CITY           SKY/WX    TMP DP  RH WIND       PRES   REMARKS
LAFAYETTE      CLEAR     55  53  93 N6        30.08S
KOKOMO*        CLEAR     55  54  94 N3        30.07F
MUNCIE*        CLEAR     58  55  90 N5        30.06S
INDIANAPOLIS   MOCLDY    60  55  83 N8        30.03F

$$
MIZ043>046-050>051-056>058-064>065-071>073-077>080-240900-
SOUTHWEST LOWER MICHIGAN

CITY           SKY/WX    TMP DP  RH WIND       PRES   REMARKS
BATTLE CREEK   CLOUDY    58  54  86 N5        30.11S
BENTON HARBOR  CLEAR     56  52  86 N3        30.12S
COLDWATER*     PTCLDY    59  57  91 NE5       30.09S
HILLSDALE*     CLEAR     58  56  90 CALM      30.09F
HOLLAND        MOCLDY    59  51  75 NE3       30.13F
GRAND RAPIDS   PTCLDY    58  53  84 N5        30.13S
KALAMAZOO      MOCLDY    58  53  84 N7        30.11S
STURGIS*       CLEAR     55  55 100 N5        30.09F
THREE RIVERS*  FAIR      58  56  92 CALM      30.11S

$$
OHZ001>008-015>018-024>025-240900-
NORTHWEST OHIO

CITY           SKY/WX    TMP DP  RH WIND       PRES   REMARKS
WAUSEON*       FAIR      55  54  94 N5        30.07F
DEFIANCE       CLOUDY    62  55  77 NE7       30.07S
FINDLAY        CLEAR     60  55  83 NE8       30.05S
TOLEDO EXPRESS CLEAR     56  53  90 N6        30.06F
TOLEDO METCALF CLEAR     61  51  70 NE5       30.06F
LIMA           CLEAR     59  57  93 N7        30.05F FOG

$$
&&


USA.gov is the U.S. government's official web portal to all federal, state and local government web resources and services.